Flag for United Kingdom Weather past 2 weeks in Birmingham, England, United Kingdom

Now
59 °F

Scattered clouds.


Feels Like: 56 °F
Forecast: 50 / 58 °F
Wind: 16 mph from Northwest

Location: Birmingham / Airport

Current Time: Sep 4, 2015 at 12:19:47 PM

Latest Report: Sep 4, 2015 at 11:50 AM


Visibility: N/A

Pressure: 30.07 "Hg

Humidity: 63%

Dew point: 46 °F

Location of BirminghamLocation

Historic Weather in Birmingham — Graph

°F

Birmingham temperature yesterday

Maximum temperature yesterday: 59 °F (at 12:50 PM)
Minimum temperature yesterday: 50 °F (at 5:50 AM)
Average temperature yesterday: 54 °F

Past Weeks' High & Low Weather Summary

 TemperatureHumidityPressure
High82 °F (Aug 22, 3:50 PM)100% (Aug 22, 1:50 AM)30.09 "Hg (Aug 22, 1:50 AM)
Low48 °F (Aug 28, 1:50 AM)43% (Aug 29, 3:20 PM)29.50 "Hg (Aug 23, 11:50 AM)
Average60 °F81%29.88 "Hg
* Reported Aug 20 11:20 AM — Sep 4 11:20 AM, Birmingham, Weather by CustomWeather, © 2015

Note: Actual official high and low records may vary slightly from our data, if they occured in-between our weather recording intervals... More about our weather records

Advertising

Birmingham weather history for previous 24 hours

 ConditionsComfort  
Time TempWeatherWind HumidityBarometerVisibility
11:20 AM
Fri, Sep 4
59 °FScattered clouds.13 mph68%30.07 "HgN/A
10:50 AM57 °FScattered clouds.12 mph72%30.07 "HgN/A
10:20 AM57 °FScattered clouds.9 mph77%30.07 "HgN/A
9:50 AM55 °FScattered clouds.10 mph82%30.07 "HgN/A
9:20 AM55 °FScattered clouds.10 mph88%30.07 "HgN/A
8:50 AM54 °FScattered clouds.9 mph94%30.07 "HgN/A
8:20 AM54 °FBroken clouds.8 mph94%30.04 "HgN/A
7:50 AM52 °FScattered clouds.8 mph94%30.04 "HgN/A
7:20 AM52 °FPassing clouds.6 mph94%30.04 "HgN/A
6:50 AM52 °FPassing clouds.3 mph94%30.04 "HgN/A
6:20 AM52 °FPassing clouds.3 mph94%30.01 "HgN/A
5:50 AM52 °FPassing clouds.3 mph94%30.04 "HgN/A
5:20 AM52 °FOvercast.6 mph94%30.04 "HgN/A
4:50 AM52 °FMostly cloudy.6 mph94%30.04 "HgN/A
4:20 AM52 °FPartly cloudy.7 mph94%30.04 "HgN/A
3:50 AM52 °FPassing clouds.5 mph94%30.04 "Hg4 mi
3:20 AM52 °FLight rain. Partly cloudy.7 mph94%30.04 "Hg5 mi
2:50 AM54 °FPassing clouds.9 mph82%30.01 "HgN/A
2:20 AM54 °FPassing clouds.8 mph82%30.01 "HgN/A
1:50 AM54 °FPassing clouds.8 mph82%30.01 "HgN/A
1:20 AM54 °FPassing clouds.8 mph82%30.04 "HgN/A
12:50 AM54 °FPassing clouds.10 mph77%30.04 "HgN/A
12:20 AM54 °FPassing clouds.8 mph77%30.04 "HgN/A
11:50 PM
Thu, Sep 3
54 °FPassing clouds.8 mph77%30.04 "HgN/A
11:20 PM54 °FOvercast.9 mph77%30.04 "HgN/A
10:20 PM54 °FPassing clouds.9 mph72%30.04 "HgN/A
9:50 PM55 °FClear.9 mph67%30.04 "Hg10 mi
9:20 PM55 °FPassing clouds.9 mph67%30.04 "HgN/A
8:50 PM55 °FPartly sunny.8 mph67%30.04 "HgN/A
8:20 PM55 °FScattered clouds.9 mph67%30.01 "HgN/A
7:50 PM55 °FPartly sunny.9 mph67%30.01 "HgN/A
7:20 PM55 °FScattered clouds.10 mph67%30.01 "HgN/A
6:50 PM55 °FSunny.10 mph67%30.01 "Hg10 mi
6:20 PM55 °FPartly sunny.13 mph67%30.01 "HgN/A
5:50 PM57 °FPartly sunny.14 mph63%30.01 "HgN/A
5:20 PM57 °FPartly sunny.12 mph59%30.01 "HgN/A
4:20 PM57 °FScattered clouds.14 mph51%29.98 "HgN/A
3:50 PM57 °FScattered clouds.14 mph55%29.98 "HgN/A
3:20 PM57 °FScattered clouds.9 mph63%29.98 "HgN/A
2:50 PM55 °FMore clouds than sun.10 mph63%29.98 "HgN/A
2:20 PM57 °FScattered showers. Broken clouds.15 mph59%29.98 "HgN/A
1:50 PM59 °FPartly sunny.10 mph55%29.98 "HgN/A
1:20 PM59 °FScattered clouds.12 mph55%29.98 "HgN/A
12:50 PM59 °FScattered clouds.12 mph59%29.98 "HgN/A
12:20 PM57 °FPartly sunny.13 mph63%29.98 "HgN/A
Weather by CustomWeather, © 2015

See weather overviewHow to use our weather pages